リニア彗星

307P/LINEAR (2014)

English version
Home page
Updated on June 11, 2016

---------------------------------------------------------------------

・ プロフィール

符号 307P/2014 O1
検出日 2013年7月25日
検出光度 19.9等
検出者 M. Micheli and D. Abreu (European Space Agency's Optical Ground Station, Tenerife)

・ 写真集

・ 軌道要素

Epoch 2014 Dec. 9.0 TT = JDT 2457000.5
T 2014 Dec. 20.23726 TT                                 MPCW
q   1.8891146            (2000.0)            P               Q
n   0.07057340     Peri.  222.14553     +0.93749391     -0.34680895
a   5.7992971      Node   158.09636     +0.33632840     +0.88169588
e   0.6742511      Incl.    4.42583     +0.08937769     +0.31989988
P  14.0
From 184 observations 2000 Aug. 24-2014 Dec. 19, mean residual 0".6.
     Nongravitational parameters A1 = +1.91, A2 = -2.5340.

・ 光度変化

        m1 = 14.5 + 5 logΔ + 10.0 log r

---------------------------------------------------------------------

軌道要素はM.P.E.C. 2015-A10に掲載されたものです。
光度グラフはComet for Windowsで作成したものです。

---------------------------------------------------------------------

Copyright(C) Seiichi Yoshida (comet@aerith.net). All rights reserved.